Weather History for Elizabethtown, NC

Change the Weather History Date:

Saturday, March 16, 2013

  Actual Average (KILM) Record (KILM)
Temperature  
Mean Temperature 66 °F 55 °F  
Max Temperature 81 °F 66 °F 85 °F (1977)
Min Temperature 50 °F 44 °F 22 °F (1890)
Degree Days  
Heating Degree Days 0 10  
Month to date heating degree days 195  
Since 1 July heating degree days 2124  
Cooling Degree Days 0 1  
Month to date cooling degree days 1  
Year to date cooling degree days 6  
Growing Degree Days 16 (Base 50)    
Moisture  
Dew Point 41 °F    
Average Humidity 42    
Maximum Humidity 67    
Minimum Humidity 24    
Precipitation  
Precipitation 0.00 in 0.14 in 1.45 in (2009)
Month to date precipitation 2.25  
Year to date precipitation 9.63  
Snow  
Snow 0.00 in 0.00 in - ()
Month to date snowfall 0.1  
Since 1 July snowfall 1.6  
Snow Depth -    
Sea Level Pressure  
Sea Level Pressure 29.85 in    
Wind  
Wind Speed 10 mph (SW)    
Max Wind Speed 18 mph    
Max Gust Speed 29 mph    
Visibility 10 miles    
Events      
T = Trace of Precipitation, MM = Missing Value Source: NWS Daily Summary

Daily Weather History Graph

Daily Weather History Graph

Search for Another Location

Airport:

Trip Planner

Search our weather history database for the weather conditions in past years. The results will help you decide how hot, cold, wet, or windy it might be!

Date:

Astronomy

Mar. 16, 2013 Rise Set
Actual Time 7:23 AM EDT 7:22 PM EDT
Civil Twilight 6:58 AM EDT 7:48 PM EDT
Nautical Twilight 6:28 AM EDT 8:17 PM EDT
Astronomical Twilight 5:59 AM EDT 8:46 PM EDT
Moon 10:04 AM EDT (3/16) No Moon Set
Length of Visible Light 12h 50m
Length of Day
11h 59m
Waxing Crescent, 23% of the Moon is Illuminated
Mar 16
Waxing Crescent
Mar 19
First Quarter
Mar 27
Full
Apr 3
Last Quarter
Apr 10
New

Hourly Weather History & Observations

Time (EDT) Temp. Dew Point Humidity Pressure Visibility Wind Dir Wind Speed Gust Speed Precip Events Conditions
12:15 AM 50.4 °F 39.7 °F 67% 29.97 in 10.0 mi South 6.9 mph - N/A   Clear
12:35 AM 50.9 °F 39.6 °F 65% 29.96 in 10.0 mi South 8.1 mph - N/A   Clear
12:55 AM 51.4 °F 39.6 °F 64% 29.95 in 10.0 mi South 6.9 mph - N/A   Clear
1:15 AM 52.2 °F 39.6 °F 62% 29.95 in 10.0 mi SSW 9.2 mph - N/A   Clear
1:35 AM 52.2 °F 39.2 °F 61% 29.94 in 10.0 mi SSW 9.2 mph - N/A   Clear
1:55 AM 52.2 °F 39.0 °F 61% 29.93 in 10.0 mi SSW 8.1 mph - N/A   Clear
2:15 AM 53.2 °F 38.8 °F 58% 29.93 in 10.0 mi SSW 8.1 mph - N/A   Clear
2:35 AM 54.0 °F 38.8 °F 57% 29.92 in 10.0 mi SSW 9.2 mph - N/A   Clear
2:55 AM 54.5 °F 39.2 °F 56% 29.92 in 10.0 mi SSW 10.4 mph - N/A   Clear
3:15 AM 54.7 °F 39.4 °F 56% 29.91 in 10.0 mi SSW 9.2 mph - N/A   Clear
3:35 AM 55.4 °F 39.6 °F 55% 29.91 in 10.0 mi SW 9.2 mph - N/A   Clear
3:55 AM 55.9 °F 39.6 °F 54% 29.90 in 10.0 mi SW 9.2 mph - N/A   Clear
4:15 AM 56.8 °F 39.7 °F 53% 29.90 in 10.0 mi SW 10.4 mph - N/A   Clear
4:35 AM 57.7 °F 39.9 °F 51% 29.89 in 10.0 mi SW 10.4 mph 16.1 mph N/A   Clear
4:55 AM 58.1 °F 40.1 °F 51% 29.89 in 10.0 mi SW 10.4 mph - N/A   Clear
5:15 AM 58.1 °F 40.1 °F 51% 29.89 in 10.0 mi SW 10.4 mph - N/A   Clear
5:35 AM 57.6 °F 40.1 °F 52% 29.89 in 10.0 mi SW 10.4 mph - N/A   Clear
5:55 AM 57.6 °F 40.5 °F 53% 29.89 in 10.0 mi SW 8.1 mph 16.1 mph N/A   Clear
6:15 AM 58.1 °F 40.5 °F 52% 29.90 in 10.0 mi SW 9.2 mph - N/A   Clear
6:35 AM 58.1 °F 40.5 °F 52% 29.90 in 10.0 mi SW 12.7 mph - N/A   Clear
7:15 AM 58.1 °F 40.5 °F 52% 29.90 in 10.0 mi SW 9.2 mph 16.1 mph N/A   Clear
7:55 AM 58.3 °F 40.8 °F 52% 29.89 in 10.0 mi SW 6.9 mph - N/A   Mostly Cloudy
8:15 AM 58.1 °F 41.0 °F 53% 29.90 in 10.0 mi SW 9.2 mph - N/A   Overcast
8:35 AM 58.1 °F 41.2 °F 53% 29.90 in 10.0 mi SW 10.4 mph - N/A   Mostly Cloudy
8:55 AM 58.5 °F 41.5 °F 53% 29.91 in 10.0 mi SW 9.2 mph - N/A   Mostly Cloudy
9:15 AM 59.0 °F 42.1 °F 53% 29.91 in 10.0 mi SW 8.1 mph - N/A   Mostly Cloudy
9:35 AM 59.0 °F 42.6 °F 55% 29.91 in 10.0 mi SW 9.2 mph - N/A   Scattered Clouds
9:55 AM 59.4 °F 43.0 °F 55% 29.90 in 10.0 mi SW 8.1 mph - N/A   Mostly Cloudy
10:15 AM 61.0 °F 43.7 °F 53% 29.90 in 10.0 mi SW 8.1 mph - N/A   Overcast
10:35 AM 63.7 °F 43.9 °F 48% 29.89 in 10.0 mi WSW 9.2 mph 16.1 mph N/A   Scattered Clouds
10:55 AM 66.4 °F 43.9 °F 44% 29.88 in 10.0 mi WSW 12.7 mph 18.4 mph N/A   Scattered Clouds
11:15 AM 68.0 °F 43.5 °F 41% 29.88 in 10.0 mi WSW 13.8 mph 19.6 mph N/A   Clear
11:35 AM 68.9 °F 43.7 °F 40% 29.87 in 10.0 mi WSW 12.7 mph 18.4 mph N/A   Scattered Clouds
11:55 AM 70.0 °F 43.5 °F 38% 29.87 in 10.0 mi WSW 10.4 mph 18.4 mph N/A   Scattered Clouds
12:15 PM 71.6 °F 43.3 °F 36% 29.86 in 10.0 mi SW 11.5 mph 17.3 mph N/A   Clear
12:35 PM 73.4 °F 43.9 °F 35% 29.85 in 10.0 mi SW 15.0 mph 20.7 mph N/A   Clear
1:15 PM 75.2 °F 43.3 °F 32% 29.83 in 10.0 mi SSW 16.1 mph 20.7 mph N/A   Clear
1:35 PM 76.6 °F 44.1 °F 31% 29.82 in 10.0 mi SSW 12.7 mph 19.6 mph N/A   Clear
1:55 PM 77.0 °F 43.7 °F 31% 29.81 in 10.0 mi SSW 16.1 mph 21.9 mph N/A   Clear
2:15 PM 78.4 °F 43.9 °F 29% 29.80 in 10.0 mi SW 12.7 mph 21.9 mph N/A   Clear
2:35 PM 78.4 °F 43.3 °F 29% 29.78 in 10.0 mi SW 11.5 mph 21.9 mph N/A   Clear
3:15 PM 80.2 °F 43.3 °F 27% 29.77 in 10.0 mi WSW 16.1 mph 23.0 mph N/A   Clear
3:35 PM 80.2 °F 43.2 °F 27% 29.76 in 10.0 mi WSW 17.3 mph 21.9 mph N/A   Clear
3:55 PM 80.2 °F 43.2 °F 27% 29.76 in 10.0 mi West 16.1 mph 25.3 mph N/A   Clear
4:15 PM 80.2 °F 44.1 °F 28% 29.75 in 10.0 mi WSW 13.8 mph 24.2 mph N/A   Clear
4:35 PM 81.0 °F 43.5 °F 27% 29.75 in 10.0 mi WSW 17.3 mph 26.5 mph N/A   Clear
4:55 PM 81.1 °F 44.1 °F 27% 29.75 in 10.0 mi WSW 15.0 mph 20.7 mph N/A   Clear
5:15 PM 81.0 °F 43.3 °F 26% 29.75 in 10.0 mi WSW 13.8 mph 20.7 mph N/A   Clear
5:35 PM 80.4 °F 42.8 °F 26% 29.74 in 10.0 mi WSW 15.0 mph 23.0 mph N/A   Clear
5:55 PM 80.2 °F 41.9 °F 26% 29.74 in 10.0 mi WSW 18.4 mph 28.8 mph N/A   Clear
6:15 PM 80.2 °F 40.6 °F 24% 29.74 in 10.0 mi SW 15.0 mph 28.8 mph N/A   Clear
6:35 PM 78.8 °F 42.8 °F 28% 29.74 in 10.0 mi WSW 11.5 mph 20.7 mph N/A   Clear
6:55 PM 78.1 °F 41.0 °F 27% 29.75 in 10.0 mi WSW 10.4 mph 19.6 mph N/A   Clear
7:15 PM 77.0 °F 40.6 °F 27% 29.75 in 10.0 mi SW 12.7 mph 17.3 mph N/A   Clear
7:35 PM 75.2 °F 41.0 °F 29% 29.76 in 10.0 mi SW 8.1 mph - N/A   Clear
7:55 PM 74.1 °F 41.4 °F 31% 29.76 in 10.0 mi SW 10.4 mph - N/A   Clear
8:15 PM 73.4 °F 41.0 °F 31% 29.78 in 10.0 mi SW 10.4 mph - N/A   Clear
8:35 PM 73.0 °F 41.0 °F 31% 29.79 in 10.0 mi SW 9.2 mph - N/A   Clear
9:15 PM 72.0 °F 39.6 °F 31% 29.81 in 10.0 mi SW 9.2 mph - N/A   Clear
9:35 PM 71.6 °F 39.6 °F 31% 29.82 in 10.0 mi SW 10.4 mph - N/A   Clear
9:55 PM 71.1 °F 39.6 °F 32% 29.83 in 10.0 mi SW 9.2 mph - N/A   Clear
10:15 PM 71.1 °F 39.6 °F 32% 29.84 in 10.0 mi SW 9.2 mph - N/A   Clear
10:35 PM 70.7 °F 39.6 °F 32% 29.85 in 10.0 mi WSW 10.4 mph - N/A   Clear
10:55 PM 70.3 °F 39.7 °F 33% 29.86 in 10.0 mi SW 9.2 mph - N/A   Clear
11:15 PM 69.8 °F 40.1 °F 34% 29.86 in 10.0 mi SW 8.1 mph - N/A   Scattered Clouds
11:35 PM 69.4 °F 40.1 °F 34% 29.87 in 10.0 mi SW 8.1 mph - N/A   Mostly Cloudy
11:55 PM 68.2 °F 40.1 °F 36% 29.87 in 10.0 mi SW 8.1 mph - N/A   Scattered Clouds